Погода в Богноре-Реджисе

Великобритания     50°46′56″N   0°42′00″E
темп.,
°C
ветер,
м/с
пор.,
м/с
влажн.,
%
обл.,
%
осадки,
мм/ч
давл.,
гПа
погр.,
м
19 сентября, вс
вс1901:00+13в3387100 0.1 101226
04:00+14всв338539 0.0 101229
07:00+13сз2391100 0.4 101219
10:00+14сз5692100 1.4 1014147
13:00+15сз4589100 2.3 1014154
16:00+16зсз247999 0.0 1015366
19:00+15сз4579100 0.4 101539
22:00+14сз448399 0.0 101748
20 сентября, пн
пн2001:00+14ссз468695 0.0 101890
04:00+13ссз599092 0.0 1019167
07:00+11ссз5108372 0.0 1021208
10:00+14с69805 0.0 1022239
13:00+17ссв567467 0.0 1023367
16:00+17с567363 0.0 1024404
19:00+16с467497 0.1 1025129
22:00+15с348046 0.0 102740
21 сентября, вт
вт2101:00+13с338885 0.1 102835
04:00+12с339029 0.0 102835
07:00+11с22845 0.0 102933
10:00+14с237799 0.0 1030148
13:00+15ююв2370100 0.0 1030404
16:00+14ююз4375100 0.0 1029107
19:00+13з338470 0.0 102920
22:00+12зсз228780 0.0 103010
22 сентября, ср
ср2201:00+12зюз118739 0.0 102910
04:00+12зюз11887 0.0 102810
07:00+12з11885 0.0 102710
10:00+14юз22795 0.0 1027136
13:00+14юз44785 0.0 1025271
16:00+14юз56785 0.0 1024226
19:00+13зюз34835 0.0 102343
22:00+12з33905 0.0 102229
23 сентября, чт
чт2301:00+12сз35925 0.0 102254
04:00+11сз339197 0.0 102137
07:00+12сз3491100 0.0 102188
10:00+13ссз4676100 0.1 1021169
13:00+15сз236157 0.2 1021361
16:00+15зюз4565100 0.0 1019558
19:00+13зюз578516 0.0 1018108
22:00+12зсз47842 0.0 1018102